Location: Fernhill
(41.0167°S, 175.6333°E)
Time: 16:36:34
(UTC+00:00)

Cosmos 1833 Rocket - Pass Details

Date: 17 February 2026
Orbit: 832 x 837 km, 71.0° (Epoch: 8 March)

Event Time Altitude Azimuth Distance (km) Brightness Sun altitude
Exits shadow 14:54:50 11° 235° (SW) 2,411 5.0 -27.6°
Maximum altitude 14:55:56 11° 223° (SW) 2,374 5.1 -27.5°
Drops below altitude 10° 14:57:43 10° 205° (SSW) 2,477 5.4 -27.3°
Sets 15:02:17 0° 172° (S) 3,421 6.7 -26.7°
